Location: Clanezzo
(45.7500°N, 9.6000°E)
Time: 01:36:54
(UTC+00:00)

AO-73 - Pass Details

Date: 01 July 2022
Orbit: 579 x 657 km, 97.6° (Epoch: 17 August)

Event Time Altitude Azimuth Distance (km) Brightness Sun altitude
Rises 02:20:51 0° 28° (NNE) 2,961 ? -10.5°
Reaches altitude 10° 02:23:41 10° 47° (NE) 2,057 ? -10.1°
Maximum altitude 02:26:47 18° 91° (E) 1,591 ? -9.8°
Drops below altitude 10° 02:29:53 10° 135° (SE) 2,064 ? -9.4°
Sets 02:32:44 0° 154° (SSE) 2,973 ? -9.1°
